This is the latest recevied weather packets stored in our database for station/object KD8OZS. If no packets are shown the sender has not sent any weather packets the latest 10 day(s).
| Time | Temp. | Humidity | Pressure | Rain* | Wind** | Luminosity | Snow |
|---|---|---|---|---|---|---|---|
| 1778010648 | 18.33° C | 76% | 1000.2 hPa | 0 mm | - | 30 W/m² | - |
| 1778010345 | 18.33° C | 75% | 1000.3 hPa | 0 mm | - | 19 W/m² | - |
| 1778010040 | 18.33° C | 74% | 1000.4 hPa | 0 mm | - | 26 W/m² | - |
| 1778009737 | 18.33° C | 76% | 1000.4 hPa | 0 mm | - | 25 W/m² | - |
| 1778009435 | 18.33° C | 75% | 1000.4 hPa | 0 mm | - | 20 W/m² | - |
| 1778009133 | 18.33° C | 74% | 1000.1 hPa | 0 mm | - | 23 W/m² | - |
| 1778008830 | 18.33° C | 74% | 1000.2 hPa | 0 mm | - | 21 W/m² | - |
| 1778008529 | 18.33° C | 75% | 1000.4 hPa | 0 mm | - | 24 W/m² | - |
| 1778008226 | 18.89° C | 73% | 1000.4 hPa | 0 mm | - | 24 W/m² | - |
| 1778007921 | 19.44° C | 71% | 1000.1 hPa | 0 mm | - | 41 W/m² | - |
| 1778007617 | 19.44° C | 70% | 1000.3 hPa | 0 mm | - | 41 W/m² | - |
| 1778007314 | 19.44° C | 68% | 1000.4 hPa | 0 mm | - | 43 W/m² | - |
| 1778007010 | 20° C | 67% | 1000.3 hPa | 0 mm | - | 69 W/m² | - |
| 1778006707 | 20° C | 67% | 1000.2 hPa | 0 mm | - | 149 W/m² | - |
| 1778006404 | 19.44° C | 68% | 1000.3 hPa | 0 mm | - | 178 W/m² | - |
| 1778006101 | 19.44° C | 69% | 1000.5 hPa | 0 mm | - | 122 W/m² | - |
| 1778005797 | 19.44° C | 68% | 1000.4 hPa | 0 mm | - | 65 W/m² | - |
| 1778005495 | 19.44° C | 69% | 1000.7 hPa | 0 mm | - | 65 W/m² | - |
| 1778005190 | 19.44° C | 67% | 1000.9 hPa | 0 mm | - | 52 W/m² | - |
| 1778004888 | 19.44° C | 67% | 1000.6 hPa | 0 mm | - | 51 W/m² | - |
| 1778004585 | 20° C | 66% | 1000.9 hPa | 0 mm | - | 85 W/m² | - |
| 1778004281 | 20° C | 67% | 1000.7 hPa | 0 mm | - | 194 W/m² | - |
| 1778003978 | 20.56° C | 66% | 1000.9 hPa | 0 mm | - | 251 W/m² | - |
| 1778003674 | 20.56° C | 67% | 1000.7 hPa | 0 mm | - | 278 W/m² | - |
| 1778003371 | 20° C | 67% | 1000.7 hPa | 0 mm | - | 334 W/m² | - |
* Rain latest hour (hover to see other rain measurements)
** Current wind speed in m/s (hover to see current wind gust speed)